Home   Weather   Fort Bragg   Past weeks

Flag for USA Past Weather in Fort Bragg, California, USA — Yesterday and Last 2 Weeks

56 °F

Rain. Fog.

Feels Like: 54 °F
Forecast: 56 / 59 °F
Wind: 8 mph from South

Location: Ukiah Municipal

Current Time: Oct 24, 2016 at 4:38:42 PM

Latest Report: Oct 24, 2016 at 3:56 PM

Visibility: 4 mi

Pressure: 29.90 "Hg

Humidity: 90%

Dew Point: 53 °F

Location of Fort BraggLocation

Past Weather in Fort Bragg — Graph


Fort Bragg Temperature Yesterday

Maximum temperature yesterday: 67 °F (at 1:56 PM)
Minimum temperature yesterday: 39 °F (at 6:56 AM)
Average temperature yesterday: 53 °F

High & Low Weather Summary for the Past Weeks

High89 °F (Oct 9, 2:56 PM)97% (Oct 18, 8:56 AM)30.26 "Hg (Oct 18, 8:56 AM)
Low39 °F (Oct 23, 6:56 AM)20% (Oct 9, 2:56 PM)29.64 "Hg (Oct 16, 4:56 PM)
Average58 °F72%29.97 "Hg
* Reported Oct 9 2:56 PM — Oct 24 2:56 PM, Fort Bragg, Weather by CustomWeather, © 2016

Note: Actual official high and low records may vary slightly from our data, if they occured in-between our weather recording intervals... More about our weather records


Fort Bragg Weather History for the Previous 24 Hours

Scroll right to see more
Time TempWeatherWind HumidityBarometerVisibility
2:56 PM
Mon, Oct 24
56 °FLight rain. Mostly cloudy.13 mph90%29.88 "Hg8 mi
1:56 PM56 °FLight rain. Fog.14 mph87%29.87 "Hg4 mi
12:56 PM56 °FLight rain. Mostly cloudy.15 mph87%29.89 "Hg8 mi
11:56 AM55 °FRain. Fog.12 mph90%29.90 "Hg3 mi
10:56 AM54 °FRain. Fog.8 mph86%29.90 "Hg2 mi
9:56 AM54 °FOvercast.8 mph83%29.90 "Hg10 mi
8:56 AM54 °FLight rain. Fog.9 mph86%29.90 "Hg4 mi
7:56 AM56 °FMostly cloudy.8 mph75%29.87 "Hg10 mi
6:56 AM56 °FMostly cloudy.8 mph72%29.87 "Hg10 mi
5:56 AM56 °FMostly cloudy.10 mph72%29.87 "Hg10 mi
4:56 AM56 °FMostly cloudy.9 mph70%29.87 "Hg10 mi
3:56 AM55 °FPartly cloudy.7 mph74%29.88 "Hg10 mi
2:56 AM55 °FMostly cloudy.10 mph74%29.89 "Hg10 mi
1:56 AM56 °FMostly cloudy.12 mph70%29.89 "Hg10 mi
12:56 AM56 °FPassing clouds.8 mph70%29.87 "Hg10 mi
11:56 PM
Sun, Oct 23
55 °FPassing clouds.10 mph72%29.88 "Hg10 mi
10:56 PM54 °FClear.8 mph74%29.88 "Hg10 mi
9:56 PM54 °FClear.10 mph74%29.89 "Hg10 mi
8:56 PM58 °FClear.12 mph50%29.86 "Hg10 mi
7:56 PM57 °FClear.5 mph49%29.85 "Hg10 mi
6:56 PM60 °FClear.5 mph42%29.84 "Hg10 mi
5:56 PM63 °FSunny.8 mph35%29.83 "Hg10 mi
4:56 PM66 °FSunny.12 mph31%29.83 "Hg10 mi
Weather by CustomWeather, © 2016

See weather overviewHow to use our weather pages